• In Hungary
  • List of Countries
  • For 7 days
  • Water Temperature
  • Satellite Maps
  • Weather Map
  • News
  • Weather Widgets
  • user-avatar
    Login

    Hourly Weather Salem

    Today, 21 October, Saturday

    Time Temperature Precipitation Wind Pressure Humidity
    00:00 +9°C° 0.5 mm 3 mps 756 mmHg 89%
    01:00 +9°C° 0.5 mm 3 mps 756 mmHg 89%
    02:00 +8°C° 1.7 mm 4 mps 755 mmHg 90%
    03:00 +8°C° 1.7 mm 4 mps 755 mmHg 90%
    04:00 +7°C° 0 mm 4 mps 754 mmHg 89%
    05:00 +7°C° 0.7 mm 4 mps 754 mmHg 89%
    06:00 +9°C° 0.7 mm 3 mps 754 mmHg 89%
    07:00 +9°C° 0.7 mm 3 mps 754 mmHg 89%
    08:00 +9°C° 1.1 mm 3 mps 754 mmHg 90%
    09:00 +10°C° 1.1 mm 4 mps 754 mmHg 90%
    10:00 +11°C° 1.1 mm 4 mps 753 mmHg 91%
    11:00 +10°C° 3.1 mm 5 mps 753 mmHg 91%
    12:00 +12°C° 3.1 mm 5 mps 753 mmHg 92%
    13:00 +13°C° 3.1 mm 5 mps 753 mmHg 92%
    14:00 +13°C° 2.2 mm 6 mps 753 mmHg 92%
    15:00 +14°C° 2.2 mm 6 mps 754 mmHg 93%
    16:00 +14°C° 2.2 mm 6 mps 754 mmHg 93%
    17:00 +14°C° 1 mm 6 mps 754 mmHg 92%
    18:00 +15°C° 1 mm 6 mps 754 mmHg 92%
    19:00 +15°C° 1 mm 7 mps 754 mmHg 91%
    20:00 +15°C° 1.1 mm 7 mps 754 mmHg 91%
    21:00 +15°C° 1.1 mm 7 mps 754 mmHg 91%
    22:00 +15°C° 1.1 mm 8 mps 755 mmHg 90%
    23:00 +15°C° 3.6 mm 8 mps 755 mmHg 91%

    Tomorrow, 22 October, Sunday

    Time Temperature Precipitation Wind Pressure Humidity
    00:00 +15°C° 3.6 mm 7 mps 755 mmHg 91%
    01:00 +15°C° 3.6 mm 7 mps 756 mmHg 92%
    02:00 +15°C° 5.2 mm 7 mps 756 mmHg 92%
    03:00 +15°C° 5.2 mm 6 mps 756 mmHg 93%
    04:00 +15°C° 5.2 mm 5 mps 757 mmHg 94%
    05:00 +15°C° 3.4 mm 5 mps 758 mmHg 94%
    06:00 +14°C° 3.4 mm 4 mps 759 mmHg 94%
    07:00 +14°C° 3.4 mm 3 mps 759 mmHg 94%
    08:00 +14°C° 0.9 mm 3 mps 760 mmHg 92%
    09:00 +16°C° 0.9 mm 3 mps 761 mmHg 90%
    10:00 +16°C° 0.9 mm 3 mps 762 mmHg 88%
    11:00 +16°C° 0.2 mm 3 mps 763 mmHg 84%
    12:00 +17°C° 0.2 mm 3 mps 764 mmHg 80%
    13:00 +17°C° 0.2 mm 3 mps 764 mmHg 76%
    14:00 +17°C° 0.1 mm 2 mps 765 mmHg 78%
    15:00 +17°C° 0.1 mm 2 mps 765 mmHg 79%
    16:00 +16°C° 0.1 mm 2 mps 765 mmHg 81%
    17:00 +15°C° 0 mm 1 mps 766 mmHg 84%
    18:00 +14°C° 0 mm 1 mps 767 mmHg 88%
    19:00 +13°C° 0 mm 1 mps 768 mmHg 91%
    20:00 +12°C° 0 mm 1 mps 768 mmHg 92%
    21:00 +12°C° 0 mm 1 mps 769 mmHg 92%
    22:00 +12°C° 0 mm 1 mps 769 mmHg 93%
    23:00 +12°C° 0 mm 1 mps 769 mmHg 93%

    Day after tomorrow, 23 October, Monday

    Time Temperature Precipitation Wind Pressure Humidity
    00:00 +11°C° 0 mm 1 mps 770 mmHg 93%
    01:00 +10°C° 0 mm 0 mps 770 mmHg 93%
    02:00 +11°C° 0 mm 1 mps 770 mmHg 93%
    03:00 +11°C° 0 mm 1 mps 771 mmHg 93%
    04:00 +10°C° 0 mm 1 mps 771 mmHg 93%
    05:00 +10°C° 0 mm 1 mps 771 mmHg 93%
    06:00 +10°C° 0 mm 1 mps 771 mmHg 93%
    07:00 +10°C° 0 mm 1 mps 771 mmHg 92%
    08:00 +12°C° 0 mm 1 mps 771 mmHg 85%
    09:00 +15°C° 0 mm 1 mps 771 mmHg 78%
    10:00 +18°C° 0 mm 1 mps 771 mmHg 70%
    11:00 +19°C° 0 mm 1 mps 771 mmHg 65%
    12:00 +20°C° 0 mm 1 mps 771 mmHg 60%
    13:00 +22°C° 0 mm 1 mps 770 mmHg 54%
    14:00 +20°C° 0 mm 2 mps 770 mmHg 58%
    15:00 +20°C° 0 mm 2 mps 770 mmHg 61%
    16:00 +19°C° 0 mm 2 mps 770 mmHg 65%
    17:00 +17°C° 0 mm 2 mps 771 mmHg 70%
    18:00 +16°C° 0 mm 2 mps 771 mmHg 74%
    19:00 +14°C° 0 mm 2 mps 771 mmHg 78%
    20:00 +14°C° 0 mm 2 mps 771 mmHg 78%
    21:00 +13°C° 0 mm 2 mps 771 mmHg 78%
    22:00 +13°C° 0 mm 2 mps 771 mmHg 77%
    23:00 +13°C° 0 mm 1 mps 771 mmHg 77%

    24 October, Tuesday

    Time Temperature Precipitation Wind Pressure Humidity
    00:00 +12°C° 0 mm 1 mps 770 mmHg 77%
    01:00 +12°C° 0 mm 1 mps 770 mmHg 78%
    02:00 +12°C° 0 mm 1 mps 770 mmHg 78%
    03:00 +12°C° 0 mm 2 mps 770 mmHg 79%
    04:00 +12°C° 0 mm 2 mps 769 mmHg 80%
    05:00 +11°C° 0 mm 1 mps 769 mmHg 80%
    06:00 +11°C° 0 mm 1 mps 769 mmHg 81%
    07:00 +11°C° 0 mm 1 mps 769 mmHg 81%
    08:00 +14°C° 0 mm 2 mps 768 mmHg 73%
    09:00 +16°C° 0 mm 2 mps 768 mmHg 66%
    10:00 +19°C° 0 mm 2 mps 767 mmHg 58%
    11:00 +20°C° 0 mm 2 mps 767 mmHg 56%
    12:00 +21°C° 0 mm 2 mps 766 mmHg 53%
    13:00 +24°C° 0 mm 2 mps 766 mmHg 50%
    14:00 +23°C° 0 mm 2 mps 765 mmHg 54%
    15:00 +23°C° 0 mm 2 mps 765 mmHg 59%
    16:00 +21°C° 0 mm 2 mps 764 mmHg 63%
    17:00 +20°C° 0 mm 1 mps 764 mmHg 67%
    18:00 +18°C° 0 mm 1 mps 764 mmHg 72%
    19:00 +15°C° 0 mm 1 mps 764 mmHg 76%
    20:00 +15°C° 0 mm 1 mps 764 mmHg 77%
    21:00 +15°C° 0 mm 1 mps 764 mmHg 77%
    22:00 +14°C° 0 mm 1 mps 764 mmHg 77%
    23:00 +14°C° 0 mm 1 mps 764 mmHg 78%

    25 October, Wednesday

    Time Temperature Precipitation Wind Pressure Humidity
    00:00 +13°C° 0 mm 1 mps 764 mmHg 79%
    01:00 +13°C° 0 mm 1 mps 763 mmHg 80%
    02:00 +12°C° 0 mm 0 mps 763 mmHg 80%
    03:00 +11°C° 0 mm 0 mps 763 mmHg 81%
    04:00 +11°C° 0 mm 0 mps 763 mmHg 81%
    05:00 +11°C° 0 mm 0 mps 763 mmHg 80%
    06:00 +11°C° 0 mm 0 mps 763 mmHg 80%
    07:00 +11°C° 0 mm 0 mps 763 mmHg 79%
    08:00 +13°C° 0 mm 0 mps 763 mmHg 73%
    09:00 +15°C° 0 mm 0 mps 763 mmHg 66%
    10:00 +18°C° 0 mm 0 mps 763 mmHg 59%
    11:00 +20°C° 0 mm 1 mps 763 mmHg 59%
    12:00 +21°C° 0 mm 1 mps 762 mmHg 59%
    13:00 +22°C° 0 mm 1 mps 762 mmHg 58%
    14:00 +21°C° 0.1 mm 1 mps 762 mmHg 66%
    15:00 +19°C° 0.1 mm 1 mps 762 mmHg 73%
    16:00 +18°C° 0.1 mm 1 mps 761 mmHg 80%
    17:00 +18°C° 0 mm 1 mps 761 mmHg 83%
    18:00 +16°C° 0 mm 1 mps 761 mmHg 86%
    19:00 +16°C° 0 mm 1 mps 761 mmHg 89%
    20:00 +16°C° 0 mm 1 mps 761 mmHg 90%
    21:00 +15°C° 0 mm 1 mps 761 mmHg 91%
    22:00 +15°C° 0 mm 1 mps 761 mmHg 93%
    23:00 +15°C° 0 mm 1 mps 761 mmHg 93%

    26 October, Thursday

    Time Temperature Precipitation Wind Pressure Humidity
    00:00 +15°C° 0 mm 1 mps 761 mmHg 93%
    01:00 +14°C° 0 mm 1 mps 761 mmHg 93%
    02:00 +14°C° 0 mm 1 mps 761 mmHg 93%
    03:00 +13°C° 0 mm 1 mps 761 mmHg 94%
    04:00 +13°C° 0 mm 2 mps 761 mmHg 94%
    05:00 +12°C° 0 mm 2 mps 761 mmHg 94%
    06:00 +12°C° 0 mm 2 mps 761 mmHg 93%
    07:00 +11°C° 0 mm 1 mps 761 mmHg 93%
    08:00 +13°C° 0 mm 2 mps 761 mmHg 87%
    09:00 +14°C° 0 mm 2 mps 761 mmHg 81%
    10:00 +16°C° 0 mm 2 mps 761 mmHg 74%
    11:00 +18°C° 0 mm 2 mps 760 mmHg 69%
    12:00 +19°C° 0 mm 2 mps 760 mmHg 64%
    13:00 +21°C° 0 mm 2 mps 759 mmHg 58%
    14:00 +20°C° 0 mm 2 mps 759 mmHg 61%
    15:00 +20°C° 0 mm 2 mps 759 mmHg 64%
    16:00 +20°C° 0 mm 2 mps 759 mmHg 67%
    17:00 +18°C° 0 mm 2 mps 759 mmHg 72%
    18:00 +17°C° 0 mm 2 mps 759 mmHg 78%
    19:00 +15°C° 0 mm 2 mps 759 mmHg 83%
    20:00 +15°C° 0 mm 2 mps 759 mmHg 84%
    21:00 +14°C° 0 mm 2 mps 759 mmHg 84%
    22:00 +14°C° 0 mm 2 mps 759 mmHg 85%
    23:00 +13°C° 0 mm 2 mps 759 mmHg 85%
    Show more